Weather History for Houston / Dunn Helistop, TX

Change the Weather History Date:

Thursday, September 12, 2013

  Actual Average (KHOU) Record (KHOU)
Temperature  
Mean Temperature 84 °F 81 °F  
Max Temperature 93 °F 91 °F 101 °F (1909)
Min Temperature 75 °F 71 °F 56 °F (1907)
Degree Days  
Heating Degree Days 0 0  
Month to date heating degree days 0  
Since 1 July heating degree days 0  
Cooling Degree Days 19 16  
Month to date cooling degree days 205  
Year to date cooling degree days 2587  
Growing Degree Days 34 (Base 50)    
Moisture  
Dew Point 69 °F    
Average Humidity 64    
Maximum Humidity 94    
Minimum Humidity 34    
Precipitation  
Precipitation 0.00 in 0.15 in 2.25 in (2003)
Month to date precipitation 1.76  
Year to date precipitation 33.63  
Sea Level Pressure  
Sea Level Pressure 29.96 in    
Wind  
Wind Speed 8 mph (East)    
Max Wind Speed 16 mph    
Max Gust Speed 24 mph    
Visibility 8 miles    
Events      
T = Trace of Precipitation, MM = Missing Value Source: NWS Daily Summary

Daily Weather History Graph

Daily Weather History Graph

Search for Another Location

Airport:

Trip Planner

Search our weather history database for the weather conditions in past years. The results will help you decide how hot, cold, wet, or windy it might be!

Date:

Astronomy

Sep. 12, 2013 Rise Set
Actual Time 7:04 AM CDT 7:30 PM CDT
Civil Twilight 6:40 AM CDT 7:54 PM CDT
Nautical Twilight 6:12 AM CDT 8:22 PM CDT
Astronomical Twilight 5:44 AM CDT 8:50 PM CDT
Moon 2:04 PM CDT (9/12) No Moon Set
Length of Visible Light 13h 13m
Length of Day
12h 25m
Waxing Crescent, 50% of the Moon is Illuminated
Sep 12
Waxing Crescent
Sep 12
First Quarter
Sep 19
Full
Sep 26
Last Quarter
Oct 4
New

Hourly Weather History & Observations

Time (CDT) Temp. Heat Index Dew Point Humidity Pressure Visibility Wind Dir Wind Speed Gust Speed Precip Events Conditions
12:15 AM 80.6 °F 84.6 °F 71.6 °F 74% 30.00 in 10.0 mi East 5.8 mph - N/A   Clear
12:35 AM 80.6 °F 84.6 °F 71.6 °F 74% 30.00 in 10.0 mi ESE 5.8 mph - N/A   Clear
12:55 AM 80.6 °F 85.4 °F 73.4 °F 79% 29.99 in 10.0 mi ESE 5.8 mph - N/A   Clear
1:15 AM 80.6 °F 85.4 °F 73.4 °F 79% 29.99 in 9.0 mi ESE 5.8 mph - N/A   Clear
1:35 AM 80.6 °F 85.4 °F 73.4 °F 79% 29.99 in 10.0 mi ESE 4.6 mph - N/A   Clear
1:55 AM 78.8 °F - 73.4 °F 83% 29.99 in 9.0 mi East 4.6 mph - N/A   Clear
2:15 AM 78.8 °F - 73.4 °F 83% 29.98 in 10.0 mi East 5.8 mph - N/A   Clear
2:35 AM 78.8 °F - 73.4 °F 83% 29.98 in 9.0 mi East 5.8 mph - N/A   Clear
2:55 AM 78.8 °F - 73.4 °F 83% 29.98 in 9.0 mi East 5.8 mph - N/A   Clear
3:15 AM 78.8 °F - 73.4 °F 83% 29.98 in 9.0 mi ESE 5.8 mph - N/A   Clear
3:35 AM 78.8 °F - 73.4 °F 83% 29.98 in 9.0 mi East 4.6 mph - N/A   Clear
3:55 AM 78.8 °F - 73.4 °F 83% 29.98 in 10.0 mi East 3.5 mph - N/A   Clear
4:15 AM 78.8 °F - 73.4 °F 83% 29.98 in 8.0 mi East 4.6 mph - N/A   Clear
4:35 AM 77.0 °F - 73.4 °F 89% 29.98 in 9.0 mi East 4.6 mph - N/A   Clear
4:55 AM 77.0 °F - 73.4 °F 89% 29.97 in 8.0 mi NNE 3.5 mph - N/A   Clear
5:15 AM 77.0 °F - 73.4 °F 89% 29.98 in 5.0 mi North 5.8 mph - N/A   Clear
5:35 AM 77.0 °F - 73.4 °F 89% 29.98 in 5.0 mi North 5.8 mph - N/A   Clear
5:55 AM 77.0 °F - 73.4 °F 89% 29.98 in 5.0 mi North 5.8 mph - N/A   Scattered Clouds
6:15 AM 75.2 °F - 73.4 °F 94% 29.98 in 4.0 mi North 4.6 mph - N/A   Partly Cloudy
6:35 AM 75.2 °F - 73.4 °F 94% 29.98 in 5.0 mi NNE 5.8 mph - N/A   Clear
6:55 AM 77.0 °F - 73.4 °F 89% 29.99 in 5.0 mi North 5.8 mph - N/A   Clear
7:15 AM 77.0 °F - 73.4 °F 89% 29.99 in 5.0 mi NNE 5.8 mph - N/A   Clear
7:35 AM 77.0 °F - 71.6 °F 83% 30.00 in 7.0 mi NE 5.8 mph - N/A   Clear
7:55 AM 77.0 °F - 73.4 °F 89% 30.00 in 7.0 mi ENE 8.1 mph - N/A   Clear
8:15 AM 77.0 °F - 73.4 °F 89% 30.00 in 7.0 mi NE 6.9 mph - N/A   Clear
8:35 AM 78.8 °F - 73.4 °F 83% 30.00 in 6.0 mi ENE 4.6 mph - N/A   Clear
8:55 AM 80.6 °F 85.4 °F 73.4 °F 79% 30.00 in 5.0 mi ENE 6.9 mph - N/A   Clear
9:15 AM 82.4 °F 88.2 °F 73.4 °F 74% 30.01 in 6.0 mi NE 10.4 mph - N/A   Clear
9:35 AM 82.4 °F 88.2 °F 73.4 °F 74% 30.01 in 6.0 mi ENE 12.7 mph - N/A   Clear
9:55 AM 84.2 °F 90.9 °F 73.4 °F 70% 30.01 in 6.0 mi ENE 8.1 mph - N/A   Partly Cloudy
10:15 AM 84.2 °F 90.9 °F 73.4 °F 70% 30.01 in 7.0 mi NE 8.1 mph - N/A   Partly Cloudy
10:35 AM 86.0 °F 91.8 °F 71.6 °F 62% 30.01 in 7.0 mi NE 12.7 mph 17.3 mph N/A   Partly Cloudy
10:55 AM 86.0 °F 90.4 °F 69.8 °F 58% 30.01 in 8.0 mi ENE 11.5 mph - N/A   Partly Cloudy
11:15 AM 87.8 °F 91.4 °F 68.0 °F 52% 30.01 in 8.0 mi ENE 16.1 mph - N/A   Partly Cloudy
11:35 AM 87.8 °F 91.4 °F 68.0 °F 52% 30.01 in 10.0 mi ENE 16.1 mph - N/A   Partly Cloudy
11:55 AM 89.6 °F 93.4 °F 68.0 °F 49% 30.01 in 9.0 mi ENE 12.7 mph 20.7 mph N/A   Partly Cloudy
12:15 PM 91.4 °F 95.4 °F 68.0 °F 46% 30.00 in 7.0 mi East 13.8 mph 21.9 mph N/A   Scattered Clouds
12:35 PM 89.6 °F 92.2 °F 66.2 °F 46% 29.99 in 10.0 mi East 11.5 mph - N/A   Partly Cloudy
12:55 PM 91.4 °F 94.0 °F 66.2 °F 43% 29.99 in 9.0 mi ENE 16.1 mph 19.6 mph N/A   Clear
1:15 PM 91.4 °F 94.0 °F 66.2 °F 43% 29.98 in 9.0 mi ENE 15.0 mph 21.9 mph N/A   Partly Cloudy
1:35 PM 91.4 °F 93.2 °F 64.4 °F 41% 29.97 in 9.0 mi NE 11.5 mph 21.9 mph N/A   Scattered Clouds
1:55 PM 93.2 °F 94.9 °F 64.4 °F 38% 29.96 in 9.0 mi East 16.1 mph 24.2 mph N/A   Partly Cloudy
2:15 PM 93.2 °F 94.9 °F 64.4 °F 38% 29.95 in 9.0 mi NE 12.7 mph 21.9 mph N/A   Partly Cloudy
2:35 PM 93.2 °F 94.1 °F 62.6 °F 36% 29.94 in 10.0 mi ENE 16.1 mph - N/A   Scattered Clouds
2:55 PM 93.2 °F 94.1 °F 62.6 °F 36% 29.93 in 9.0 mi East 11.5 mph 20.7 mph N/A   Partly Cloudy
3:15 PM 93.2 °F 94.1 °F 62.6 °F 36% 29.92 in 9.0 mi East 15.0 mph 19.6 mph N/A   Clear
3:35 PM 93.2 °F 94.1 °F 62.6 °F 36% 29.91 in 7.0 mi East 15.0 mph 23.0 mph N/A   Clear
3:55 PM 93.2 °F 93.3 °F 60.8 °F 34% 29.90 in 10.0 mi East 13.8 mph 20.7 mph N/A   Clear
4:15 PM 93.2 °F 94.1 °F 62.6 °F 36% 29.90 in 10.0 mi SE 11.5 mph - N/A   Clear
4:35 PM 93.2 °F 94.9 °F 64.4 °F 38% 29.89 in 8.0 mi ESE 13.8 mph 20.7 mph N/A   Clear
4:55 PM 91.4 °F 94.0 °F 66.2 °F 43% 29.89 in 9.0 mi ESE 15.0 mph 23.0 mph N/A   Clear
5:15 PM 91.4 °F 94.0 °F 66.2 °F 43% 29.89 in 9.0 mi SE 15.0 mph 18.4 mph N/A   Clear
5:35 PM 91.4 °F 94.0 °F 66.2 °F 43% 29.89 in 9.0 mi East 12.7 mph - N/A   Clear
5:55 PM 89.6 °F 92.2 °F 66.2 °F 46% 29.88 in 10.0 mi ESE 13.8 mph 17.3 mph N/A   Clear
6:15 PM 89.6 °F 92.2 °F 66.2 °F 46% 29.89 in 10.0 mi ESE 16.1 mph - N/A   Clear
6:35 PM 87.8 °F 90.4 °F 66.2 °F 49% 29.89 in 10.0 mi ESE 13.8 mph 18.4 mph N/A   Clear
6:55 PM 86.0 °F 88.2 °F 66.2 °F 51% 29.89 in 10.0 mi ESE 9.2 mph - N/A   Clear
7:15 PM 86.0 °F 88.2 °F 66.2 °F 51% 29.90 in 9.0 mi ESE 10.4 mph - N/A   Clear
7:35 PM 86.0 °F 88.2 °F 66.2 °F 51% 29.90 in 10.0 mi ESE 8.1 mph - N/A   Clear
7:55 PM 84.2 °F 87.3 °F 68.0 °F 58% 29.90 in 10.0 mi ESE 9.2 mph - N/A   Clear
8:15 PM 84.2 °F 87.3 °F 68.0 °F 58% 29.90 in 10.0 mi SE 10.4 mph - N/A   Clear
8:35 PM 82.4 °F 85.4 °F 68.0 °F 62% 29.91 in 10.0 mi SE 6.9 mph - N/A   Clear
8:55 PM 82.4 °F 85.4 °F 68.0 °F 62% 29.91 in 10.0 mi SE 6.9 mph - N/A   Clear
9:15 PM 82.4 °F 85.4 °F 68.0 °F 62% 29.92 in 10.0 mi SE 8.1 mph - N/A   Clear
9:35 PM 82.4 °F 85.4 °F 68.0 °F 62% 29.93 in 10.0 mi SE 6.9 mph - N/A   Clear
9:55 PM 82.4 °F 85.4 °F 68.0 °F 62% 29.93 in 10.0 mi SE 5.8 mph - N/A   Clear
10:15 PM 82.4 °F 85.4 °F 68.0 °F 62% 29.93 in 10.0 mi SE 3.5 mph - N/A   Clear
10:35 PM 82.4 °F 85.4 °F 68.0 °F 62% 29.93 in 10.0 mi SSE 5.8 mph - N/A   Clear
10:55 PM 82.4 °F 85.4 °F 68.0 °F 62% 29.93 in 10.0 mi SSE 4.6 mph - N/A   Clear
11:15 PM 80.6 °F 83.2 °F 68.0 °F 65% 29.93 in 7.0 mi South 3.5 mph - N/A   Clear
11:35 PM 80.6 °F 83.2 °F 68.0 °F 65% 29.92 in 10.0 mi Calm Calm - N/A   Clear
11:55 PM 80.6 °F 83.2 °F 68.0 °F 65% 29.92 in 10.0 mi Calm Calm - N/A   Clear